Falfurrias, TX

11:12 AM CDT on October 22, 2017 (GMT -0500)
Falfurrias

Weather History for KBKS - January, 2013

Change the Weather History Date:

Sunday, January 20, 2013

  Actual Average (KNQI) Record (KNQI)
Temperature  
Mean Temperature 62 °F -  
Max Temperature 77 °F 68 °F 87 °F (1999)
Min Temperature 46 °F 47 °F 30 °F (2008)
Degree Days  
Heating Degree Days 4    
Growing Degree Days 12 (Base 50)    
Moisture  
Dew Point 52 °F    
Average Humidity 74    
Maximum Humidity 97    
Minimum Humidity 38    
Precipitation  
Precipitation 0.00 in - - ()
Sea Level Pressure  
Sea Level Pressure 30.17 in    
Wind  
Wind Speed 2 mph (SE)    
Max Wind Speed 13 mph    
Max Gust Speed -    
Visibility 9 miles    
Events      
Averages and records for this station are not official NWS values.
T = Trace of Precipitation, MM = Missing Value Source: NWS Daily Summary

Daily Weather History Graph

Daily Weather History Graph

Search for Another Location

Airport or City:

Trip Planner

Search our weather history database for the weather conditions in past years. The results will help you decide how hot, cold, wet, or windy it might be!

Date:

Astronomy

Jan. 20, 2013 Rise Set
Actual Time 7:22 AM CST 6:04 PM CST
Civil Twilight 6:57 AM CST 6:29 PM CST
Nautical Twilight 6:29 AM CST 6:58 PM CST
Astronomical Twilight 6:01 AM CST 7:26 PM CST
Moon 1:05 PM CST (1/20) 1:59 AM CST (1/20)
Length of Visible Light 11h 31m
Length of Day
10h 42m
Waxing Gibbous, 66% of the Moon is Illuminated
Jan 20
Waxing Gibbous
Jan 26
Full
Feb 3
Last Quarter
Feb 10
New
Feb 17
First Quarter

Hourly Weather History & Observations

Time (CST) Temp. Dew Point Humidity Pressure Visibility Wind Dir Wind Speed Gust Speed Precip Events Conditions
12:15 AM 54.3 °F 50.7 °F 88% 30.23 in 10.0 mi Calm Calm - N/A   Clear
12:35 AM 53.2 °F 50.2 °F 89% 30.22 in 10.0 mi Calm Calm - N/A   Clear
12:55 AM 52.7 °F 50.0 °F 91% 30.21 in 10.0 mi Calm Calm - N/A   Clear
1:15 AM 51.4 °F 48.9 °F 91% 30.22 in 10.0 mi Calm Calm - N/A   Clear
1:35 AM 50.5 °F 48.4 °F 92% 30.21 in 10.0 mi Calm Calm - N/A   Clear
1:55 AM 50.7 °F 48.6 °F 92% 30.20 in 10.0 mi Calm Calm - N/A   Clear
2:15 AM 49.5 °F 46.9 °F 91% 30.20 in 10.0 mi Calm Calm - N/A   Clear
2:35 AM 49.6 °F 47.3 °F 92% 30.20 in 10.0 mi Calm Calm - N/A   Clear
2:55 AM 50.2 °F 48.2 °F 93% 30.19 in 10.0 mi Calm Calm - N/A   Clear
3:15 AM 49.5 °F 47.8 °F 94% 30.19 in 7.0 mi Calm Calm - N/A   Clear
3:35 AM 48.4 °F 46.9 °F 95% 30.19 in 10.0 mi North 3.5 mph - N/A   Clear
3:55 AM 49.5 °F 48.4 °F 96% 30.19 in 5.0 mi North 3.5 mph - N/A   Clear
4:15 AM 49.6 °F 48.6 °F 96% 30.19 in 5.0 mi Calm Calm - N/A   Clear
4:35 AM 49.3 °F 48.2 °F 96% 30.19 in 7.0 mi Calm Calm - N/A   Clear
4:55 AM 48.9 °F 47.8 °F 96% 30.19 in 5.0 mi Calm Calm - N/A   Clear
5:15 AM 48.4 °F 47.5 °F 97% 30.19 in 4.0 mi Calm Calm - N/A   Clear
5:35 AM 48.6 °F 47.7 °F 97% 30.19 in 5.0 mi Calm Calm - N/A   Clear
5:55 AM 48.2 °F 47.3 °F 97% 30.20 in 5.0 mi Calm Calm - N/A   Clear
6:35 AM 46.4 °F 45.5 °F 97% 30.20 in 7.0 mi Calm Calm - N/A   Clear
6:55 AM 46.8 °F 45.7 °F 96% 30.21 in 4.0 mi Calm Calm - N/A   Clear
7:15 AM 47.3 °F 46.4 °F 97% 30.21 in 5.0 mi Calm Calm - N/A   Clear
7:35 AM 46.6 °F 45.5 °F 96% 30.21 in 7.0 mi Calm Calm - N/A   Clear
7:55 AM 46.8 °F 45.5 °F 95% 30.22 in 7.0 mi Calm Calm - N/A   Clear
8:15 AM 46.0 °F 44.8 °F 95% 30.22 in 10.0 mi Calm Calm - N/A   Clear
8:35 AM 48.2 °F 46.8 °F 95% 30.23 in 5.0 mi NNW 3.5 mph - N/A   Clear
8:55 AM 50.9 °F 49.6 °F 95% 30.24 in 5.0 mi Calm Calm - N/A   Clear
9:15 AM 53.1 °F 51.6 °F 95% 30.24 in 7.0 mi Calm Calm - N/A   Clear
9:35 AM 55.6 °F 52.9 °F 91% 30.24 in 10.0 mi Calm Calm - N/A   Clear
9:55 AM 60.1 °F 53.8 °F 80% 30.24 in 10.0 mi Calm Calm - N/A   Clear
10:15 AM 63.1 °F 54.5 °F 73% 30.25 in 10.0 mi Calm Calm - N/A   Clear
10:35 AM 66.2 °F 54.3 °F 65% 30.25 in 10.0 mi ESE 5.8 mph - N/A   Clear
10:55 AM 68.5 °F 54.7 °F 61% 30.25 in 10.0 mi SSE 4.6 mph - N/A   Clear
11:15 AM 70.5 °F 55.2 °F 58% 30.24 in 10.0 mi SSE 3.5 mph - N/A   Clear
11:55 AM 72.1 °F 56.5 °F 58% 30.23 in 10.0 mi SSE 4.6 mph - N/A   Scattered Clouds
12:35 PM 73.8 °F 55.9 °F 54% 30.20 in 10.0 mi South 3.5 mph - N/A   Mostly Cloudy
12:55 PM 74.3 °F 55.0 °F 51% 30.18 in 10.0 mi SE 5.8 mph - N/A   Scattered Clouds
1:15 PM 75.4 °F 54.1 °F 48% 30.16 in 10.0 mi South 5.8 mph - N/A   Scattered Clouds
1:35 PM 74.1 °F 53.6 °F 49% 30.14 in 10.0 mi SE 5.8 mph - N/A   Scattered Clouds
1:55 PM 76.5 °F 52.9 °F 44% 30.13 in 10.0 mi SSW 6.9 mph - N/A   Scattered Clouds
2:15 PM 76.5 °F 52.3 °F 43% 30.12 in 10.0 mi Calm Calm - N/A   Mostly Cloudy
2:35 PM 75.4 °F 52.5 °F 45% 30.11 in 10.0 mi ESE 4.6 mph - N/A   Scattered Clouds
2:55 PM 77.0 °F 52.0 °F 42% 30.10 in 10.0 mi Calm Calm - N/A   Mostly Cloudy
3:15 PM 77.4 °F 51.6 °F 41% 30.09 in 10.0 mi South 9.2 mph - N/A   Mostly Cloudy
3:35 PM 76.8 °F 50.9 °F 40% 30.09 in 10.0 mi South 5.8 mph - N/A   Scattered Clouds
3:55 PM 76.5 °F 51.1 °F 41% 30.09 in 10.0 mi ESE 3.5 mph - N/A   Clear
4:15 PM 77.0 °F 51.1 °F 40% 30.09 in 10.0 mi SE 4.6 mph - N/A   Clear
4:35 PM 77.7 °F 50.5 °F 38% 30.08 in 10.0 mi South 5.8 mph - N/A   Clear
4:55 PM 77.5 °F 50.2 °F 38% 30.08 in 10.0 mi ESE 4.6 mph - N/A   Clear
5:15 PM 77.4 °F 53.8 °F 44% 30.09 in 10.0 mi East 9.2 mph - N/A   Clear
5:35 PM 74.5 °F 55.4 °F 51% 30.09 in 10.0 mi East 12.7 mph - N/A   Clear
5:55 PM 72.7 °F 55.8 °F 55% 30.09 in 10.0 mi East 11.5 mph - N/A   Clear
6:15 PM 71.4 °F 55.8 °F 58% 30.10 in 10.0 mi East 11.5 mph - N/A   Clear
6:35 PM 69.8 °F 55.6 °F 61% 30.10 in 10.0 mi ESE 6.9 mph - N/A   Clear
6:55 PM 68.4 °F 55.4 °F 63% 30.11 in 10.0 mi East 6.9 mph - N/A   Clear
7:15 PM 67.3 °F 55.2 °F 65% 30.12 in 10.0 mi East 6.9 mph - N/A   Clear
7:35 PM 66.2 °F 55.0 °F 67% 30.12 in 10.0 mi ESE 5.8 mph - N/A   Clear
7:55 PM 65.5 °F 54.9 °F 68% 30.12 in 10.0 mi ESE 4.6 mph - N/A   Clear
8:15 PM 64.8 °F 54.9 °F 70% 30.13 in 10.0 mi ESE 4.6 mph - N/A   Clear
8:35 PM 64.4 °F 55.0 °F 72% 30.13 in 10.0 mi ESE 4.6 mph - N/A   Clear
8:55 PM 64.0 °F 55.4 °F 73% 30.14 in 10.0 mi SE 4.6 mph - N/A   Clear
9:15 PM 63.1 °F 55.4 °F 76% 30.14 in 10.0 mi ESE 3.5 mph - N/A   Clear
9:35 PM 62.2 °F 55.4 °F 78% 30.14 in 10.0 mi ESE 3.5 mph - N/A   Clear
9:55 PM 61.7 °F 55.4 °F 80% 30.14 in 10.0 mi Calm Calm - N/A   Clear
10:15 PM 61.2 °F 55.2 °F 81% 30.14 in 10.0 mi Calm Calm - N/A   Clear
10:35 PM 60.3 °F 55.0 °F 83% 30.14 in 10.0 mi Calm Calm - N/A   Clear
10:55 PM 59.9 °F 54.9 °F 83% 30.14 in 10.0 mi Calm Calm - N/A   Clear
11:15 PM 59.5 °F 54.9 °F 84% 30.15 in 10.0 mi Calm Calm - N/A   Clear
11:35 PM 59.4 °F 54.9 °F 85% 30.15 in 10.0 mi Calm Calm - N/A   Clear
11:55 PM 58.8 °F 54.5 °F 86% 30.15 in 10.0 mi Calm Calm - N/A   Clear